Hourly Weather Observations

Printer Friendly

AL    FL    LA    MS

Data Buoys:

Western Gulf of Mexico
Eastern Gulf of Mexico

Alabama

800 AM CST SAT NOV 28 2020

ALZ051>064-281500-
SOUTHWEST ALABAMA
  
CITY           SKY/WX    TMP DP  RH WIND       PRES   REMARKS
MOBILE         CLOUDY    62  61  96 NE7       30.08S                  
BROOKLEY FIELD CLOUDY    65  62  90 NE9       30.08S                  
EVERGREEN      PTSUNNY   63  60  90 N3        30.10R                  


Mississippi

800 AM CST SAT NOV 28 2020

MSZ080>082-281500-
COASTAL MISSISSIPPI
  
CITY           SKY/WX    TMP DP  RH WIND       PRES   REMARKS
BAY ST LOUIS   MOSUNNY   63  61  94 MISG      30.09R                  
BILOXI         CLOUDY    63  62  97 NE7       30.08R                  
PASCAGOULA     CLOUDY    67  61  81 NE6       30.06S                  
GULFPORT       CLOUDY    64  60  87 N7        30.08R                  


Florida

900 AM EST SAT NOV 28 2020

FLZ001>010-012>015-112-114-115-281500-
PANHANDLE FLORIDA
  
CITY           SKY/WX    TMP DP  RH WIND       PRES   REMARKS
PENSACOLA      CLOUDY    65  63  93 N10G18    30.07R                  
PENSACOLA NAS  CLOUDY    66  62  87 N14       30.05S                  
MILTON NAS     CLOUDY    63  61  93 VRB3      30.08R                  
CRESTVIEW      PTSUNNY   65  62  90 VRB3      30.07S                  
DUKE FIELD     FAIR      64  58  82 N5        30.06S                  
VALPARAISO     PTSUNNY   64  64 100 N10       30.05S                  
MARY ESTHER    CLOUDY    65  63  93 N13       30.04R                  
TRI COUNTY     CLOUDY    65  62  90 N6        30.07R                  
PANAMA CITY    CLOUDY    68  65  90 NW12      30.05R                  
TYNDALL AFB    CLOUDY    69  68  94 N5        30.05R                  
APALACHICOLA   CLOUDY    72  71  97 NW6       30.02R                  

STATION/POSITION SKY/WX   TEMP    WIND        PRES    WAVE   SWELL
                          AIR SEA DIR/SP/G            HT/PER HT/PER
                          (F)     (DEG/KT/KT) (MB)    (FT/S) (FT/S)
30.1N   87.6W              68 74   20/ 17/ 21 1017.8R   2/ 8   2/ 8
28.8N   86.0W              76 77  240/ 12/ 14 1017.3R   2/ 8   2/ 8
PANAMA CITY BEAC           68 71   10/  3/  6 1017.7
TOWER C                    74     230/ 12/ 13 1017.0S
28.5N   84.5W                     210/  8/ 10 1018.3R   1/ 6   2/ 6


Louisiana

800 AM CST SAT NOV 28 2020

LAZ040-048-061>063-065-066-069-281500-
SOUTHEAST LOUISIANA
  
CITY           SKY/WX    TMP DP  RH WIND       PRES   REMARKS
N.O. INTL ARPT CLOUDY    67  63  87 N9        30.08R                  
N.O. LAKEFRONT   N/A    N/A N/A N/A MISG      30.09R                  
RESERVE*       CLOUDY    67  64  90 NE7       30.10R                  
SLIDELL        CLOUDY    64  62  93 N7        30.07R                  
BATON ROUGE    CLOUDY    65  62  90 NE7       30.10R                  
BOOTHVILLE*    CLOUDY    67  65  96 N9        30.06R                  
BELLE CHASSE*  CLOUDY    68  68 100 NE7       30.07R                  
BOGALUSA*      CLOUDY    64  61  90 N6        30.10R                  
GALLIANO*      CLOUDY    67  66  94 NE3       30.06R                  
NEW ROADS*     CLOUDY    63  63 100 N5        30.11S FOG              
GONZALES*      NOT AVBL                                               
HAMMOND*       CLOUDY    63  63 100 N3        30.10R                  
HOUMA*         PTSUNNY   66  64  94 N7        30.07R                  
PORT FOURCHON* NOT AVBL